Location: Fort Wayne
(41.1310°N, 85.1290°W)
Time: 16:21:12
(UTC-04:00)

COSMOS 2406 - Visible Passes

Search period start: 30 May 2016 00:00
Search period end: 09 June 2016 00:00
Orbit: 843 x 865 km, 71.0° (Epoch: 30 May)

Date Brightness Start Highest point End Pass type
(mag) Time Alt. Az. Time Alt. Az. Time Alt. Az.
30 May 5.6 01:29:25 10° W 01:33:08 18° NW 01:36:54 10° N visible
30 May 3.1 23:33:42 28° SSW 23:36:53 81° ESE 23:42:38 10° NNE visible
31 May 5.6 01:18:14 10° W 01:21:55 17° NW 01:25:39 10° N visible
31 May 5.1 21:41:48 10° E 21:42:20 10° E 21:42:51 10° E visible
31 May 3.1 23:21:23 19° SSW 23:25:39 83° ESE 23:31:25 10° NNE visible
01 Jun 5.7 01:07:04 10° W 01:10:43 17° NW 01:14:23 10° N visible
01 Jun 3.1 23:08:44 10° SSW 23:14:25 84° ESE 23:20:11 10° NNE visible
02 Jun 5.8 00:55:55 10° W 00:59:30 17° NW 01:03:08 10° N visible
02 Jun 3.2 22:57:29 10° SSW 23:03:11 85° ESE 23:08:58 10° NNE visible
03 Jun 5.8 00:44:45 10° W 00:48:18 17° NW 00:51:52 10° N visible
03 Jun 3.2 22:46:16 10° SSW 22:51:58 87° ESE 22:57:45 10° NNE visible
04 Jun 5.9 00:33:36 10° W 00:37:05 16° NW 00:40:37 10° N visible
04 Jun 3.2 22:35:01 10° SSW 22:40:44 88° ESE 22:46:32 10° NNE visible
05 Jun 5.9 00:22:26 10° W 00:25:52 16° NW 00:29:21 10° N visible
05 Jun 3.2 22:23:48 10° SSW 22:29:31 89° ESE 22:35:18 10° NNE visible
06 Jun 6.0 00:11:17 10° W 00:14:40 16° NW 00:18:05 10° N visible
06 Jun 3.3 22:12:35 10° SSW 22:18:17 89° WNW 22:24:05 10° NNE visible
07 Jun 6.0 00:00:07 10° W 00:03:28 16° NW 00:06:50 10° N visible
07 Jun 3.3 22:01:21 10° SSW 22:07:04 88° WNW 22:12:51 10° NNE visible
07 Jun 6.1 23:48:58 10° W 23:52:15 15° NW 23:55:34 10° NNW visible
08 Jun 3.3 21:50:08 10° SSW 21:55:50 86° WNW 22:01:38 10° NNE visible
08 Jun 6.1 23:37:49 10° W 23:41:03 15° NW 23:44:19 10° NNW visible
